Tacoma Narrows, WA
on Thursday, November 8, 2012

Thursday
Previous Day Next Day
Daily Summary
 ActualAverageRecord
Temperature
Mean Temperature °F °F  
Max Temperature 48°F 50°F 62°F (1996)
Min Temperature 37°F 41°F 37°F (2001)
Degree Days
Heating Degree Days 22    
Moisture
Dew Point 35°F   
Average Humidity 77    
Maximum Humidity 93    
Minimum Humidity 61    
Precipitation
Precipitation 0.00 in in in ()
Wind
Wind Speed 4 mph   
Max Wind Speed 20 mph   
Max Gust Speed 26 mph   
Visibility 10 miles   
Events     
Averages and records for this station are not official NWS values.
Key: T is trace of precipitation, MM is missing value
Source: NWS Daily Summary
Seasonal Weather Averages
Time(PST)TemperatureDew PointHumidity Pressure Visibility Wind DirectionWind SpeedGust SpeedPrecipitationEvents Conditions
12:53 AM 41.0°F 35.1°F 79% 29.94 in 10.0 miles Calm Calm - N/A   Partly Cloudy
1:53 AM 39.9°F 36.0°F 86% 29.92 in 10.0 miles Calm Calm - N/A   Partly Cloudy
2:53 AM 39.0°F 35.1°F 86% 29.90 in 10.0 miles Calm Calm - N/A   Clear
3:53 AM 39.9°F 35.1°F 83% 29.88 in 10.0 miles NNE 3.5 mph - N/A   Clear
4:53 AM 39.9°F 37.0°F 89% 29.87 in 10.0 miles Calm Calm - N/A   Clear
5:53 AM 39.0°F 36.0°F 89% 29.86 in 10.0 miles NNE 4.6 mph - N/A   Clear
6:53 AM 37.9°F 35.1°F 89% 29.85 in 10.0 miles NW 3.5 mph - N/A   Clear
7:01 AM 37.4°F 35.6°F 93% 29.84 in 10.0 miles Calm Calm - N/A   Scattered Clouds
7:09 AM 39.2°F 37.4°F 93% 29.84 in 10.0 miles Calm Calm - N/A   Mostly Cloudy
7:53 AM 39.9°F 37.0°F 89% 29.86 in 10.0 miles North 6.9 mph - N/A   Overcast
8:10 AM 39.2°F 37.4°F 93% 29.84 in 10.0 miles NNW 4.6 mph - N/A   Scattered Clouds
8:16 AM 39.2°F 37.4°F 93% 29.84 in 10.0 miles NW 3.5 mph - N/A   Mostly Cloudy
8:53 AM 41.0°F 37.9°F 89% 29.84 in 10.0 miles North 8.1 mph - N/A   Scattered Clouds
9:53 AM 44.1°F 37.9°F 79% 29.84 in 10.0 miles NNE 9.2 mph 21.9 mph N/A   Mostly Cloudy
10:53 AM 46.0°F 36.0°F 68% 29.84 in 10.0 miles North 16.1 mph 26.5 mph N/A   Clear
11:53 AM 46.9°F 37.0°F 68% 29.83 in 10.0 miles North 19.6 mph 25.3 mph N/A   Scattered Clouds
12:53 PM 48.0°F 37.0°F 66% 29.83 in 10.0 miles North 13.8 mph - N/A   Mostly Cloudy
1:53 PM 48.9°F 37.0°F 64% 29.82 in 10.0 miles North 12.7 mph 19.6 mph N/A   Clear
2:53 PM 48.0°F 35.1°F 61% 29.82 in 10.0 miles North 13.8 mph 20.7 mph N/A   Mostly Cloudy
3:53 PM 48.0°F 35.1°F 61% 29.83 in 10.0 miles North 12.7 mph - N/A   Scattered Clouds
4:53 PM 46.0°F 35.1°F 66% 29.83 in 10.0 miles NNE 8.1 mph - N/A   Overcast
5:53 PM 46.0°F 34.0°F 63% 29.83 in 10.0 miles NNE 9.2 mph - N/A   Clear
6:53 PM 45.0°F 33.1°F 63% 29.83 in 10.0 miles NNE 6.9 mph - N/A   Clear
7:53 PM 45.0°F 33.1°F 63% 29.83 in 10.0 miles NE 4.6 mph - N/A   Clear
8:53 PM 44.1°F 32.0°F 63% 29.84 in 10.0 miles Calm Calm - N/A   Clear
9:53 PM 39.0°F 32.0°F 76% 29.85 in 10.0 miles Calm Calm - N/A   Clear
10:53 PM 39.9°F 30.9°F 70% 29.85 in 10.0 miles Calm Calm - N/A   Mostly Cloudy
11:53 PM 39.0°F 33.1°F 79% 29.86 in 10.0 miles Calm Calm - N/A   Mostly Cloudy
Moon Phase
Nov. 08 Nov. 13 Nov. 20 Nov. 28 Dec. 06
Sunrise:07:04 AM (PST) Moon Rise:12:43 AM (PST)11/8
Sunset:04:42 PM (PST) Moon Set:01:46 PM (PST)11/8

Copyright © 2014 The Weather Underground, Inc.